Regional Weather Roundup
Issued by NWS

Home | Current Version | Previous Version | Graphics & Text | Print | Product List | Glossary On
Versions: 1 2 3 4 5 6 7 8 9 10 11 12 13 14 15 16 17 18 19 20 21 22 23 24 25 26 27 28 29 30 31 32 33 34 35 36 37 38 39 40 41 42 43 44 45 46 47 48 49 50
000
ASUS43 KLOT 010403
RWRIL

ILLINOIS REGIONAL WEATHER ROUNDUP
NATIONAL WEATHER SERVICE CHICAGO/ROMEOVILLE IL
1100 PM CDT SAT APR 30 2016

NOTE: "FAIR" INDICATES FEW OR NO CLOUDS BELOW 12,000 FEET WITH NO
SIGNIFICANT WEATHER AND/OR OBSTRUCTIONS TO VISIBILITY.

* THESE STATIONS ARE NOT UNDER NWS QUALITY CONTROL. THEY ALSO MAY NOT
  REPORT WEATHER SUCH AS PRECIPITATION OR FOG.

ILZ001-002-007-009-015-016-024-010500-
NORTHWEST ILLINOIS

CITY           SKY/WX    TMP DP  RH WIND       PRES   REMARKS
MOLINE         CLOUDY    47  43  86 E16       29.89R
STERLING*      CLOUDY    45  45 100 NE13      29.91F
$$

ILZ003-004-008-010-011-017-018-010500-
NORTH CENTRAL ILLINOIS

CITY           SKY/WX    TMP DP  RH WIND       PRES   REMARKS
ROCKFORD       DRIZZLE   46  43  89 NE14      29.95S
FREEPORT*      CLOUDY    43  42  95 NE15      29.96S FOG
ROCHELLE*      CLOUDY    45  44  96 NE13      29.92S FOG
DE KALB*       CLOUDY    45  44  96 E14       29.93S FOG
$$

ILZ005-006-012>014-019>023-010500-
NORTHEAST ILLINOIS

CITY           SKY/WX    TMP DP  RH WIND       PRES   REMARKS
CHICAGO-OHARE  DRIZZLE   45  44  97 NE15      29.92F FOG
CHICAGO-MIDWAY DRIZZLE   47  44  90 NE16      29.91F FOG
AURORA         CLOUDY    47  45  93 NE16      29.91S FOG
LANSING*       DRIZZLE   46  46  99 NE13      29.89F
WAUKEGAN       CLOUDY    44  44 100 NE16G24   29.93F
DUPAGE AIRPORT CLOUDY    46  42  86 NE14      29.92S
WHEELING       LGT RAIN  44  43  96 NE15G22   29.95F FOG
MORRIS*        DRIZZLE   47  46  95 NE5       29.88F
NORTHERLY ISL    N/A     44  43  96 N18         N/A
NORTHERLY ISL    N/A     44  43  96 N18         N/A
$$

LMZ740>746-010500-
SOUTHERN LAKE MICHIGAN

STATION/POSITION SKY/WX   TEMP    WIND        PRES    VSBY  WAVE
                          AIR SEA DIR/SP/G                  HT/PER
                          (F)     (DEG/KT/KT) (MB)    (MI)  (FT/S)
SOUTHERN BUOY              43 40   40/ 14/ 17 1015.1          2/ 3
HARRISON CRIB              45      40/ 21/ 24   N/A
BURNHAM HARBOR             44      40/ 14/ 18   N/A
CALUMET HARBOR             45      30/ 14/ 18 1012.8S
BURNS HARBOR               47      50/ 15/ 18 1013.2S
MICHIGAN CITY              47      30/ 13/ 15   N/A
ST. JOSEPH                 49 47                N/A           2/ 3
$$

ILZ025>027-034>036-040-047-049-050-058-095>099-010500-
WEST-CENTRAL ILLINOIS

CITY           SKY/WX    TMP DP  RH WIND       PRES   REMARKS
QUINCY         FOG       59  59 100 N10       29.82S VSB 1/4
MACOMB*        CLOUDY    50  50 100 NE14      29.87R FOG
PITTSFIELD*    CLEAR     55  55  98 CALM      29.82S
$$

ILZ028>032-037-038-041>044-048-051>054-059>061-010500-
CENTRAL ILLINOIS

CITY           SKY/WX    TMP DP  RH WIND       PRES   REMARKS
BLOOMINGTON    FOG       51  51 100 E12       29.87R VSB<1/4
DECATUR        CLOUDY    59  57  93 S5        29.85R FOG
PEORIA         CLOUDY    50  48  93 NE13      29.84S FOG
LINCOLN*       CLOUDY    56  56  99 NE7       29.84S FOG
SPRINGFIELD    CLOUDY    61  60  97 E13       29.81F FOG
TAYLORVILLE    NOT AVBL
$$

ILZ033-039-045-046-055>057-062-063-010500-
EAST-CENTRAL ILLINOIS

CITY           SKY/WX    TMP DP  RH WIND       PRES   REMARKS
CHAMPAIGN      FOG       55  55 100 SW6       29.85R VSB 1/4
MATTOON        CLOUDY    63  61  93 S6        29.85R
$$

ILZ079-100>102-010500-
SOUTHWEST ILLINOIS

CITY           SKY/WX    TMP DP  RH WIND       PRES   REMARKS
BELLEVILLE     TSTM      57  57 100 S9        29.87R
CAHOKIA*       LGT RAIN  60  57  89 S8        29.84S
SPARTA*        TSTM      57  55  92 NW6       29.90R
$$

ILZ064>066-069>071-074>076-080>082-084>086-088>090-092>094-010500-
SOUTH-CENTRAL ILLINOIS

CITY           SKY/WX    TMP DP  RH WIND       PRES   REMARKS
CARBONDALE     PTCLDY    63  60  90 SE5       29.85R
CAIRO*         CLOUDY    65  62  90 CALM      29.84R
EFFINGHAM*     LGT RAIN  64  61  90 SW14      29.89R
MT. VERNON     CLOUDY    66  61  82 SW9       29.87R
SALEM*         RAIN      62  55  76 W6        29.90R
$$

ILZ067-068-072-073-078-083-087-091-010500-
SOUTHEAST ILLINOIS

CITY           SKY/WX    TMP DP  RH WIND       PRES   REMARKS
LAWRENCEVILLE  CLOUDY    64  64 100 S7          N/A
FLORA*         CLOUDY    65  64  93 CALM      29.87R
HARRISBURG*    CLEAR     64  63  99 CALM      29.86R
ROBINSON*      CLOUDY    63  62  99 S3        29.86S
CARMI*         PTCLDY    63  63  97 CALM      29.86R
$$

ABBREVIATIONS USED IN REMARKS
   TC - TEMPERATURE IN CELSIUS
  WCI - WIND CHILL INDEX
   HX - HEAT INDEX
  VSB - VISIBILITY
$$





USA.gov is the U.S. government's official web portal to all federal, state and local government web resources and services.